Flag for Peru Weather past 2 weeks in Iquitos, Loreto, Peru

Now
73 °F

Passing clouds.


Feels Like: 70 °F
Forecast: 73 / 83 °F
Wind: 3 mph from Northwest

Location: Iquitos Airport

Current Time: Jan 31, 2015 at 4:13:44 AM

Latest Report: Jan 31, 2015 at 2:00 AM


Visibility: 4 mi

Pressure: 29.89 "Hg

Humidity: 94%

Dew point: 72 °F

Location of IquitosLocation

Historic Weather in Iquitos — Graph

°F

Iquitos temperature yesterday

Maximum temperature yesterday: 82 °F (at 3:00 PM)
Minimum temperature yesterday: 75 °F (at 7:00 AM)
Average temperature yesterday: 77 °F

Past Weeks' High & Low Weather Summary

 TemperatureHumidityPressure
High93 °F (Jan 17, 4:00 PM)100% (Jan 19, 6:02 AM)29.98 "Hg (Jan 19, 6:02 AM)
Low72 °F (Jan 22, 5:00 PM)52% (Jan 17, 2:00 PM)29.71 "Hg (Jan 17, 4:00 PM)
Average78 °F87%29.86 "Hg
* Reported Jan 16 2:00 AM — Jan 31 2:00 AM, Iquitos, Weather by CustomWeather, © 2014

Note: Actual official high and low records may vary slightly from our data, if they occured in-between our weather recording intervals... More about our weather records

Advertising

Iquitos weather history for previous 24 hours

 ConditionsComfort  
Time TempWeatherWind HumidityBarometerVisibility
2:00 AM
Jan 31
73 °FPassing clouds.3 mph94%29.89 "Hg4 mi
11:00 PM
Jan 30
75 °FPassing clouds.3 mph94%29.92 "HgN/A
10:00 PM75 °FScattered showers. Mostly cloudy.No wind94%29.92 "Hg5 mi
9:00 PM75 °FPassing clouds.No wind94%29.89 "HgN/A
8:00 PM75 °FMild.No wind94%29.83 "HgN/A
7:00 PM77 °FScattered showers. Partly cloudy.3 mph89%29.80 "Hg5 mi
6:00 PM79 °FBroken clouds.3 mph89%29.80 "HgN/A
5:00 PM79 °FDrizzle. Partly sunny.6 mph89%29.80 "Hg5 mi
4:00 PM82 °FScattered showers. Partly sunny.6 mph79%29.80 "HgN/A
3:00 PM82 °FPartly sunny.8 mph79%29.80 "HgN/A
1:00 PM81 °FPartly sunny.6 mph79%29.89 "HgN/A
12:00 PM79 °FPartly sunny.5 mph84%29.92 "HgN/A
11:00 AM77 °FDrizzle. Mostly cloudy.6 mph89%29.92 "Hg4 mi
10:00 AM77 °FDrizzle. Mostly cloudy.5 mph89%29.92 "Hg5 mi
9:00 AM75 °FMostly cloudy.6 mph94%29.92 "Hg4 mi
8:00 AM75 °FMostly cloudy.6 mph94%29.89 "Hg5 mi
7:00 AM75 °FCloudy.5 mph94%29.86 "HgN/A
Weather by CustomWeather, © 2014

See weather overviewHow to use our weather pages